Weather History for Trinidad, CO

Change the Weather History Date:

Thursday, March 6, 2014

  Actual Average Record
Temperature  
Mean Temperature 52 °F 40 °F  
Max Temperature 71 °F 55 °F 77 °F (1987)
Min Temperature 32 °F 25 °F 0 °F (1967)
Degree Days  
Heating Degree Days 13 25  
Month to date heating degree days 170 155  
Since 1 July heating degree days 4164 4277  
Cooling Degree Days 0 0  
Month to date cooling degree days 0 0  
Year to date cooling degree days 0 0  
Growing Degree Days 2 (Base 50)    
Moisture  
Dew Point 13 °F    
Average Humidity 35    
Maximum Humidity 61    
Minimum Humidity 8    
Precipitation  
Precipitation 0.00 in 0.03 in 0.23 in (1978)
Month to date precipitation T 0.16  
Year to date precipitation 0.09 1.05  
Sea Level Pressure  
Sea Level Pressure 29.85 in    
Wind  
Wind Speed 12 mph (West)    
Max Wind Speed 28 mph    
Max Gust Speed 37 mph    
Visibility 10 miles    
Events      
T = Trace of Precipitation, MM = Missing Value Source: NWS Daily Summary

Daily Weather History Graph

Daily Weather History Graph

Search for Another Location

Airport:

Trip Planner

Search our weather history database for the weather conditions in past years. The results will help you decide how hot, cold, wet, or windy it might be!

Date:

Astronomy

Mar. 06, 2014 Rise Set
Actual Time 6:21 AM MST 5:56 PM MST
Civil Twilight 5:55 AM MST 6:22 PM MST
Nautical Twilight 5:25 AM MST 6:52 PM MST
Astronomical Twilight 4:54 AM MST 7:22 PM MST
Moon 9:38 AM MST (3/6) 11:56 PM MST (3/6)
Length of Visible Light 12h 26m
Length of Day
11h 34m
Waxing Crescent, 33% of the Moon is Illuminated
Mar 6
Waxing Crescent
Mar 8
First Quarter
Mar 16
Full
Mar 23
Last Quarter
Mar 30
New

Hourly Weather History & Observations

Time (MST) Temp. Windchill Dew Point Humidity Pressure Visibility Wind Dir Wind Speed Gust Speed Precip Events Conditions
12:54 AM 35.1 °F 32.2 °F 21.0 °F 57% 30.06 in 10.0 mi Variable 3.5 mph - N/A   Clear
1:54 AM 33.1 °F 26.9 °F 21.0 °F 61% 30.06 in 10.0 mi WNW 6.9 mph - N/A   Clear
2:54 AM 33.1 °F 23.4 °F 21.9 °F 64% 30.04 in 10.0 mi WSW 13.8 mph - N/A   Clear
3:54 AM 35.1 °F 25.5 °F 21.0 °F 57% 30.01 in 10.0 mi WSW 15.0 mph - N/A   Clear
4:54 AM 34.0 °F 23.8 °F 19.9 °F 56% 30.00 in 10.0 mi WSW 16.1 mph - N/A   Clear
5:54 AM 35.1 °F 24.5 °F 19.0 °F 52% 30.00 in 10.0 mi WSW 18.4 mph - N/A   Clear
6:54 AM 36.0 °F 26.7 °F 18.0 °F 48% 30.01 in 10.0 mi WSW 15.0 mph - N/A   Clear
7:54 AM 43.0 °F 36.0 °F 17.1 °F 35% 30.01 in 10.0 mi SW 13.8 mph - N/A   Clear
8:54 AM 52.0 °F - 16.0 °F 24% 29.99 in 10.0 mi WSW 15.0 mph - N/A   Clear
9:54 AM 62.1 °F - 10.0 °F 13% 29.94 in 10.0 mi SW 13.8 mph - N/A   Clear
10:54 AM 64.0 °F - 8.1 °F 11% 29.88 in 10.0 mi WSW 9.2 mph - N/A   Clear
11:54 AM 66.0 °F - 8.1 °F 10% 29.83 in 10.0 mi Calm Calm - N/A   Clear
12:54 PM 69.1 °F - 8.1 °F 9% 29.77 in 10.0 mi East 5.8 mph - N/A   Clear
1:54 PM 71.1 °F - 6.1 °F 8% 29.73 in 10.0 mi NW 9.2 mph 23.0 mph N/A   Clear
2:54 PM 69.1 °F - 5.0 °F 8% 29.73 in 10.0 mi NNW 11.5 mph - N/A   Clear
3:54 PM 68.0 °F - 3.9 °F 8% 29.71 in 10.0 mi NNW 18.4 mph - N/A   Clear
4:54 PM 64.0 °F - 9.0 °F 12% 29.73 in 10.0 mi NNW 10.4 mph - N/A   Clear
5:54 PM 60.1 °F - 8.1 °F 13% 29.74 in 10.0 mi North 10.4 mph - N/A   Clear
6:54 PM 54.0 °F - 10.0 °F 17% 29.75 in 10.0 mi NW 6.9 mph - N/A   Clear
7:54 PM 52.0 °F - 10.0 °F 19% 29.74 in 10.0 mi West 5.8 mph - N/A   Clear
8:54 PM 52.0 °F - 12.0 °F 20% 29.70 in 10.0 mi WSW 12.7 mph - N/A   Clear
9:54 PM 51.1 °F - 12.9 °F 22% 29.66 in 10.0 mi WSW 15.0 mph - N/A   Clear
10:54 PM 55.0 °F - 9.0 °F 16% 29.63 in 10.0 mi WSW 24.2 mph 31.1 mph N/A   Clear
11:54 PM 54.0 °F - 12.9 °F 20% 29.62 in 10.0 mi WSW 20.7 mph - N/A   Clear